Regional Weather Roundup
Issued by NWS

Home | Current Version | Previous Version | Graphics & Text | Print | Product List | Glossary On
Versions: 1 2 3 4 5 6 7 8 9 10 11 12 13 14 15 16 17 18 19 20 21 22 23 24 25 26 27 28 29 30 31 32 33 34 35 36 37 38 39 40 41 42 43 44 45 46 47 48 49 50
000
ASUS43 KDMX 261606
RWRIA

WEATHER ROUNDUP FOR IOWA
NATIONAL WEATHER SERVICE DES MOINES IA
1100 AM CDT MON JUN 26 2017

NOTE: "FAIR" INDICATES FEW OR NO CLOUDS BELOW 12,000 FEET WITH NO
SIGNIFICANT WEATHER AND/OR OBSTRUCTIONS TO VISIBILITY.

* - THESE STATIONS ARE NOT NWS STATIONS...THUS NOT UNDER NWS
QUALITY CONTROL.  THEY ALSO DO NOT REPORT WEATHER SUCH
AS PRECIPITATION OR FOG.

IAZ001>003-012>014-020>022-031>034-043>046-261700-
   NORTHWEST IOWA

CITY           SKY/WX    TMP DP  RH WIND       PRES   REMARKS
CARROLL *      MOSUNNY   68  55  64 NW9       30.20S
CHEROKEE *     PTSUNNY   66  51  59 NE7       30.22S
DENISON *      MOSUNNY   64  54  68 CALM      30.22S
LE MARS *      SUNNY     66  48  52 NE6G13    30.22S
ORANGE CITY *  SUNNY     66  48  52 NE6       30.22S
SHELDON *      MOSUNNY   64  48  55 N7        30.21S
SIOUX CITY     MOSUNNY   69  53  56 NE7       30.20F
SPENCER        MOSUNNY   65  44  46 N12       30.22S
STORM LAKE *   SUNNY     64  50  59 NE7       30.21F
$$

IAZ055>058-069>071-079>083-090>094-261700-
   SOUTHWEST IOWA

CITY           SKY/WX    TMP DP  RH WIND       PRES   REMARKS
ATLANTIC *     SUNNY     64  55  72 SW7G14    30.19S
AUDUBON *      MOSUNNY   64  55  72 CALM      30.21F
CLARINDA *     CLOUDY    63  57  82 MISG      30.22S
COUNCIL BLFS * MOSUNNY   63  59  88 S7        30.19S
CRESTON *      CLOUDY    63  54  72 S13       30.21S
HARLAN  *      SUNNY     64  57  77 W5        30.22S
LAMONI         MOSUNNY   60  53  77 SE9       30.21F
RED OAK *      CLOUDY    63  57  82 S7        30.20R
SHENANDOAH *   PTSUNNY   64  57  77 S16       30.19F
$$

IAZ047>049-059>061-072>074-084-261700-
   CENTRAL IOWA

CITY           SKY/WX    TMP DP  RH WIND       PRES   REMARKS
AMES           CLOUDY    66  55  67 W6        30.20F
ANKENY *       CLOUDY    63  54  72 MISG      30.22F
BOONE *        PTSUNNY   64  52  63 CALM      30.20S
CHARITON *     MOSUNNY   63  54  72 S10       30.19F
DES MOINES     CLOUDY    63  54  72 SW5       30.21S
GRINNELL*      CLOUDY    63  52  69 W12       30.22S
KNOXVILLE *    CLOUDY    63  54  72 W5G13     30.20S
MARSHALLTOWN   MOSUNNY   67  52  58 VRB5G17   30.19S
NEWTON *       PTSUNNY   63  55  77 W10       30.21S
PELLA *        PTSUNNY   61  55  79 NW9       30.23R
PERRY *        CLOUDY    66  55  65 W5        30.21S
$$

IAZ004>006-015-016-023>025-035-036-261700-
   NORTH CENTRAL IOWA

CITY           SKY/WX    TMP DP  RH WIND       PRES   REMARKS
ALGONA *       MOSUNNY   64  46  52 N8G16     30.21S
CLARION *        N/A     66  46  48 VRB7G15   30.20S
ESTHERVILLE    SUNNY     63  46  54 N13       30.21F
FORT DODGE *   PTSUNNY   66  48  52 N5        30.22S
MASON CITY     SUNNY     65  43  44 NW14      30.21S
FOREST CITY *    N/A     68  32  26 NW12      30.20S
WEBSTER CITY * MOSUNNY   66  50  55 NW9       30.19S
IOWA FALLS *   PTSUNNY   66  52  61 NW8       30.21S
$$

IAZ007>011-017>019-026>030-037>042-050>054-066-261700-
   NORTHEAST IOWA

CITY           SKY/WX    TMP DP  RH WIND       PRES   REMARKS
CEDAR RAPIDS   PTSUNNY   66  52  60 NW13      30.18R
CHARLES CITY * SUNNY     64  45  48 NW9G16    30.19S
CLINTON *      MOSUNNY   69  49  48 MISG      30.15S
DECORAH *      MOSUNNY   63  46  55 NW14G23   30.16R
DUBUQUE        MOSUNNY   65  45  48 NW13      30.16R
MONTICELLO *   PTSUNNY   68  50  52 NW13      30.16S
OELWEIN *      PTSUNNY   64  48  55 NW13      30.18S
WATERLOO       MOSUNNY   66  47  50 N15G21    30.17S
$$

IAZ064-065-067-068-078-261700-
   EAST CENTRAL IOWA

CITY           SKY/WX    TMP DP  RH WIND       PRES   REMARKS
DAVENPORT      PTSUNNY   66  51  58 W15       30.17S
IOWA CITY      PTSUNNY   69  52  54 NW9       30.19F
MT. PLEASANT * PTSUNNY   60  54  80 W10       30.22S
MUSCATINE *    CLOUDY    68  50  52 W15       30.19S
QUAD CITIES    PTSUNNY   67  51  56 W15G21    30.17S
$$

IAZ062-063-075>077-085>089-095>099-261700-
   SOUTHEAST IOWA

CITY           SKY/WX    TMP DP  RH WIND       PRES   REMARKS
BURLINGTON     CLOUDY    60  55  83 W7        30.21R
FAIRFIELD *    PTSUNNY   61  54  77 W10       30.21S
FORT MADISON * CLOUDY    61  55  82 NW8       30.22F
KEOKUK *       RAIN      59  54  82 W14G21    30.24F
OSKALOOSA *    CLOUDY    60  54  79 NW8       30.22S
CENTERVILLE *    N/A     59  55  88 CALM      30.22F
OTTUMWA        PTSUNNY   62  56  80 W9        30.21S
WASHINGTON *   PTSUNNY   64  52  63 W14G20    30.20F
$$

ABBREVIATIONS USED IN REMARKS
   TC - TEMPERATURES IN CELSIUS
  WCI - WIND CHILL INDEX
   HX - HEAT INDEX
  VSB - VISIBILITY
$$





USA.gov is the U.S. government's official web portal to all federal, state and local government web resources and services.